Location: Brno
(49.2000°N, 16.6330°E)
Time: 13:16:50
(UTC+02:00)

Transit 4A - Visible Passes

Search period start: 03 August 2021 00:00
Search period end: 13 August 2021 00:00
Orbit: 872 x 972 km, 66.8° (Epoch: 02 August)

Date Brightness Start Highest point End Pass type
(mag) Time Alt. Az. Time Alt. Az. Time Alt. Az.
03 Aug 7.7 00:55:53 45° SW 00:57:49 86° NW 01:03:42 10° NE visible
03 Aug 9.6 02:40:13 10° W 02:45:00 25° NNW 02:49:46 10° NNE visible
03 Aug 10.3 04:30:34 10° NW 04:33:32 14° N 04:36:30 10° NNE visible
03 Aug 8.7 23:21:03 27° ESE 23:21:14 28° ESE 23:26:04 10° NE visible
04 Aug 8.1 01:04:31 33° WSW 01:07:10 63° NW 01:12:59 10° NNE visible
04 Aug 9.9 02:50:21 10° WNW 02:54:41 21° NNW 02:59:01 10° NNE visible
04 Aug 10.3 04:40:30 10° NNW 04:43:24 14° N 04:46:18 10° NNE visible
04 Aug 8.2 23:29:37 38° SE 23:30:19 39° ESE 23:35:42 10° NE visible
05 Aug 8.6 01:13:05 22° WSW 01:16:36 47° NW 01:22:14 10° NNE visible
05 Aug 10.1 03:00:33 10° WNW 03:04:25 18° NNW 03:08:19 10° NNE visible
05 Aug 10.3 04:50:14 10° NNW 04:53:16 14° N 04:56:20 10° NE visible
05 Aug 7.8 23:38:06 45° SSE 23:39:29 56° ESE 23:45:11 10° NE visible
06 Aug 9.1 01:21:33 14° WSW 01:26:06 36° NW 01:31:29 10° NNE visible
06 Aug 10.2 03:10:47 10° NW 03:14:13 16° NNW 03:17:41 10° NNE visible
06 Aug 9.4 22:03:00 15° ESE 22:03:19 15° ESE 22:06:24 10° ENE visible
06 Aug 7.6 23:46:27 39° SSW 23:48:43 78° ESE 23:54:34 10° NE visible
07 Aug 9.5 01:30:39 10° W 01:35:41 29° NW 01:40:42 10° NNE visible
07 Aug 10.3 03:20:57 10° NW 03:24:04 14° N 03:27:11 10° NNE visible
07 Aug 8.9 22:11:13 21° ESE 22:12:18 22° ESE 22:16:37 10° ENE visible
07 Aug 7.8 23:54:39 27° SW 23:58:01 77° NW 00:03:53 10° NE visible
08 Aug 9.8 01:40:41 10° W 01:45:19 23° NNW 01:49:56 10° NNE visible
08 Aug 10.4 03:31:01 10° NNW 03:33:56 14° N 03:36:51 10° NNE visible
08 Aug 8.5 22:19:12 24° SSE 22:21:20 31° ESE 22:26:23 10° NE visible
09 Aug 8.3 00:02:36 15° SW 00:07:24 57° NW 00:13:10 10° NNE visible
09 Aug 10.1 01:50:51 10° WNW 01:55:02 20° NNW 01:59:12 10° NNE visible
09 Aug 10.5 03:40:52 10° NNW 03:43:48 14° N 03:46:45 10° NNE visible
09 Aug 8.1 22:26:47 20° S 22:30:27 44° ESE 22:35:58 10° NE visible
10 Aug 8.8 00:11:17 10° WSW 00:16:51 43° NW 00:22:24 10° NNE visible
10 Aug 10.3 02:01:04 10° WNW 02:04:48 17° NNW 02:08:31 10° NNE visible
10 Aug 10.5 03:50:32 10° NNW 03:53:40 14° N 03:56:49 10° NE visible
10 Aug 9.5 20:52:56 10° ESE 20:54:27 11° E 20:55:58 10° E visible
10 Aug 7.7 22:33:52 10° SSW 22:39:39 63° ESE 22:45:24 10° NE visible
11 Aug 9.3 00:21:08 10° WSW 00:26:23 33° NW 00:31:38 10° NNE visible
11 Aug 10.4 02:11:18 10° NW 02:14:37 15° NNW 02:17:56 10° NNE visible
11 Aug 10.5 04:00:01 10° NNW 04:03:30 16° NNE 04:07:02 10° NE visible
11 Aug 9.2 20:59:46 10° SE 21:03:23 17° ESE 21:06:59 10° ENE visible
11 Aug 7.7 22:43:01 10° SSW 22:48:54 87° SE 22:54:46 10° NE visible
12 Aug 9.7 00:31:06 10° W 00:35:59 27° NNW 00:40:52 10° NNE visible
12 Aug 10.5 02:21:26 10° NW 02:24:28 14° N 02:27:29 10° NNE visible
12 Aug 10.5 04:09:22 10° NNW 04:13:18 18° NNE 04:17:16 10° ENE visible
12 Aug 8.8 21:07:45 10° SSE 21:12:23 25° ESE 21:17:00 10° NE visible
12 Aug 8.0 22:52:23 10° SW 22:58:14 69° NW 23:04:04 10° NNE visible
